This is the latest recevied weather packets stored in our database for station/object SP1BMW-13. If no packets are shown the sender has not sent any weather packets the latest 10 day(s).
| Time | Temp. | Humidity | Pressure | Rain* | Wind** | Luminosity | Snow |
|---|---|---|---|---|---|---|---|
| 1778250540 | 13.89° C | 51% | 1019.6 hPa | 0 mm | 0.45 m/s, 11° | 177 W/m² | - |
| 1778250480 | 13.89° C | 52% | 1019.4 hPa | 0 mm | 0.89 m/s, 53° | 177 W/m² | - |
| 1778250420 | 13.89° C | 54% | 1019.5 hPa | 0 mm | 0.89 m/s, 30° | 176 W/m² | - |
| 1778250360 | 13.89° C | 52% | 1019.3 hPa | 0 mm | 0.89 m/s, 267° | 176 W/m² | - |
| 1778250300 | 13.89° C | 55% | 1019.4 hPa | 0 mm | 0 m/s | 177 W/m² | - |
| 1778250248 | 13.89° C | 54% | 1019.5 hPa | 0 mm | 0 m/s | 182 W/m² | - |
| 1778250240 | 13.89° C | 54% | 1019.6 hPa | 0 mm | 0.45 m/s, 260° | 180 W/m² | - |
| 1778250120 | 13.89° C | 53% | 1019.6 hPa | 0 mm | 0.45 m/s, 64° | 183 W/m² | - |
| 1778250061 | 13.89° C | 53% | 1019.6 hPa | 0 mm | 0.45 m/s, 41° | 183 W/m² | - |
| 1778250000 | 13.89° C | 54% | 1019.7 hPa | 0 mm | 0.89 m/s, 23° | 181 W/m² | - |
| 1778249940 | 13.89° C | 53% | 1019.2 hPa | 0 mm | 0.89 m/s, 34° | 180 W/m² | - |
| 1778249880 | 13.89° C | 54% | 1019.5 hPa | 0 mm | 0.45 m/s, 305° | 179 W/m² | - |
| 1778249820 | 13.89° C | 52% | 1019.6 hPa | 0 mm | 1.79 m/s, 348° | 176 W/m² | - |
| 1778249760 | 13.89° C | 54% | 1019.5 hPa | 0 mm | 1.34 m/s, 322° | 173 W/m² | - |
| 1778249700 | 13.89° C | 56% | 1019.5 hPa | 0 mm | 0.45 m/s, 330° | 170 W/m² | - |
| 1778249641 | 13.89° C | 54% | 1019.6 hPa | 0 mm | 0.45 m/s, 352° | 169 W/m² | - |
| 1778249580 | 13.89° C | 53% | 1019.6 hPa | 0 mm | 0.45 m/s, 13° | 169 W/m² | - |
| 1778249520 | 13.89° C | 53% | 1019.5 hPa | 0 mm | 0.45 m/s, 334° | 170 W/m² | - |
| 1778249460 | 13.89° C | 53% | 1019.6 hPa | 0 mm | 0.45 m/s, 41° | 173 W/m² | - |
| 1778249400 | 13.89° C | 53% | 1019.7 hPa | 0 mm | 0.89 m/s, 14° | 174 W/m² | - |
| 1778249340 | 13.33° C | 55% | 1019.5 hPa | 0 mm | 0.89 m/s, 269° | 174 W/m² | - |
| 1778249279 | 13.33° C | 54% | 1019.6 hPa | 0 mm | 0 m/s | 173 W/m² | - |
| 1778249220 | 13.33° C | 54% | 1019.8 hPa | 0 mm | 0.45 m/s, 12° | 168 W/m² | - |
| 1778249160 | 13.33° C | 55% | 1019.5 hPa | 0 mm | 0 m/s | 164 W/m² | - |
| 1778249100 | 13.33° C | 54% | 1019.5 hPa | 0 mm | 0 m/s | 157 W/m² | - |
* Rain latest hour (hover to see other rain measurements)
** Current wind speed in m/s (hover to see current wind gust speed)